RH
93 94 73 68 41 49 62 67 72 79 80 78 76 76 77 88 80 86 85 97 97 94 84 95 88 98 95 95 80 68 88 90 93
92 94 79 72 52 57 57 70 72 77 76 77 78 78 85 82 84 88 95 97 88 94 87 75 95 94 95 92 92 92 92 94 95
94 96 84 75 65 50 70 77 80 78 74 72 77 78 85 85 89 91 92 87 93 91 87 88 88 89 97 95 88 88 89 89 94
82 91 86 76 70 55 54 61 65 73 74 73 76 80 82 80 72 73 76 77 92 86 75 80 82 78 88 86 86 84 83 82 79
87 89 87 81 76 78 57 62 65 64 69 70 70 70 73 74 72 72 72 76 83 75 70 80 76 57 59 64 69 71 75 74 73
90 92 91 88 82 81 73 59 64 65 62 64 70 70 70 73 75 72 75 81 91 82 71 72 80 75 74 69 77 73 77 85 91
86 89 88 87 84 82 78 69 62 62 62 62 62 66 70 72 76 74 76 81 97 91 80 68 66 73 74 83 91 91 91 93 94
69 72 77 83 83 77 74 72 68 60 64 63 60 59 67 73 74 70 77 80 95 98 90 81 75 77 83 88 89 90 89 91 91
51 54 57 64 69 71 70 70 70 66 61 63 60 58 59 65 71 68 70 76 80 94 97 89 81 88 89 90 90 90 85 90 91
64 52 50 50 55 58 62 64 64 60 62 63 65 61 60 59 65 66 61 66 73 78 94 97 93 90 90 90 90 88 92 90 91
72 70 61 61 60 63 67 67 66 58 58 60 66 69 68 63 61 59 58 60 64 68 76 91 93 91 90 90 90 90 90 91 92
72 79 77 66 65 68 69 70 71 67 62 60 65 69 72 74 63 57 58 60 57 59 64 87 90 91 89 88 89 91 90 91 91
73 77 80 79 78 78 76 71 70 71 69 67 68 69 73 74 77 77 72 64 60 55 56 60 76 88 89 87 86 87 91 89 88
76 75 73 76 82 84 83 82 76 72 73 70 70 70 72 72 72 74 74 74 76 69 60 55 59 66 81 86 84 84 88 92 89
76 77 77 77 78 81 85 85 83 82 83 80 78 74 70 68 69 68 68 66 67 72 66 58 55 58 64 80 86 83 84 93 91
85 84 81 80 81 80 82 89 88 88 81 94 84 77 68 62 60 63 67 67 70 72 69 63 57 53 56 67 72 86 84 86 95
97 95 93 92 92 89 85 87 91 88 84 89 88 82 73 67 65 65 63 65 64 64 64 63 59 54 53 56 62 70 87 83 84
97 97 99 99 100 99 99 95 96 100 93 94 91 92 86 77 67 64 66 67 67 65 63 61 62 61 57 54 59 75 79 88 85
64 71 79 93 99 99 100 100 100 100 98 93 94 94 95 96 90 75 70 71 72 73 73 74 74 71 64 59 60 64 75 86 92
51 54 57 62 73 98 96 99 100 100 98 99 97 98 96 98 99 96 88 77 72 69 68 77 80 80 79 75 71 68 70 80 97
Wind_Speed
9 10 8 9 10 11 12 12 11 10 10 10 9 8 7 6 9 12 12 10 12 10 9 13 8 7 6 5 6 7 8 8 10
9 10 7 8 9 10 10 10 9 8 9 9 10 10 10 13 13 10 8 7 6 7 6 6 8 8 11 7 6 7 9 11 11
10 10 7 6 7 8 8 7 7 6 7 7 8 8 9 11 10 8 5 3 5 6 6 6 4 4 5 8 8 7 8 7 7
5 7 6 4 5 6 6 6 5 4 4 5 6 5 5 3 3 2 3 5 5 5 5 4 4 2 1 2 3 3 2 1 2
8 6 6 4 3 3 3 4 3 3 2 2 2 1 1 2 2 2 3 4 4 5 5 4 4 4 2 2 5 5 2 4 5
9 7 6 5 3 2 2 3 4 4 3 3 3 2 4 5 4 3 4 3 4 5 6 5 4 4 4 2 0 2 3 2 0
8 8 7 6 5 5 4 4 5 5 4 4 5 6 5 5 6 6 6 5 4 6 6 5 5 4 3 2 2 2 1 2 2
10 9 9 9 8 7 7 7 7 6 6 5 6 7 9 9 9 10 9 8 6 7 7 6 5 4 2 1 1 1 1 0 1
10 9 9 10 10 9 9 9 9 8 8 8 8 8 9 11 12 11 10 10 9 8 9 8 6 4 4 3 3 3 3 3 2
9 9 10 10 10 9 9 10 11 10 10 10 11 10 10 11 13 14 12 13 13 11 11 9 8 7 7 6 6 6 6 5 5
11 10 11 10 10 9 10 10 11 11 12 12 13 13 14 14 14 15 15 15 15 15 13 12 11 10 9 9 9 8 7 6 5
13 12 12 12 12 12 12 12 12 13 13 15 15 15 16 16 17 18 18 18 17 18 18 16 15 13 13 12 11 10 8 8 7
14 16 15 13 14 14 16 16 16 16 16 17 17 18 18 19 20 21 21 21 21 20 20 20 19 16 15 14 13 13 13 11 11
18 19 18 16 17 18 18 19 19 20 19 20 21 21 21 22 22 24 26 26 26 25 23 22 22 22 20 17 16 15 15 15 13
19 21 21 20 20 21 21 21 21 23 21 21 23 24 25 25 25 25 26 28 27 27 27 25 24 24 24 23 20 18 17 19 18
18 19 19 20 21 22 21 21 21 19 20 13 15 19 21 22 25 27 25 25 25 24 27 26 25 25 26 26 26 23 20 19 21
21 22 22 21 21 22 23 21 17 16 19 8 6 5 8 12 18 17 17 17 17 18 20 22 24 25 26 28 28 28 25 22 21
17 18 20 21 20 22 22 22 20 13 16 15 10 3 4 3 9 11 12 13 13 14 16 15 15 18 22 25 28 30 29 26 24
9 11 13 16 17 18 20 19 18 17 14 13 17 21 9 1 2 3 7 12 13 15 15 18 17 18 18 19 23 24 26 30 28
7 8 9 10 12 14 16 18 18 17 16 16 12 11 12 11 7 2 4 7 12 13 16 17 18 17 17 18 19 19 21 22 26
Wind_Direction
146 144 115 90 86 99 110 109 106 98 86 82 83 88 86 82 109 95 87 86 83 62 52 52 78 58 35 64 61 71 66 95 95
154 156 129 98 89 103 106 115 112 102 87 78 81 89 85 92 104 101 88 71 54 35 30 48 57 62 56 74 70 88 87 91 87
156 156 142 112 95 104 111 119 120 109 93 79 87 91 95 94 97 98 91 14 20 26 26 41 61 27 48 55 71 81 83 85 84
159 169 157 131 107 102 131 138 143 138 111 94 97 104 109 89 59 47 24 17 29 32 20 30 24 35 188 160 97 51 68 29 16
162 178 172 161 135 120 132 161 166 176 177 152 118 108 214 246 333 351 1 8 8 6 9 8 11 18 20 253 231 212 236 280 282
181 191 192 191 191 192 190 195 205 217 215 231 237 263 281 256 266 293 305 337 336 341 352 351 350 358 5 15 336 238 218 192 151
203 208 210 216 223 229 232 234 233 239 240 246 256 263 272 257 260 279 282 287 283 313 330 337 331 336 346 360 8 11 67 103 124
220 222 228 234 239 244 247 249 252 253 262 267 268 265 260 258 267 278 270 271 268 275 302 316 316 298 298 303 298 320 358 9 141
232 237 240 243 246 252 254 257 263 265 267 274 282 277 265 261 267 283 275 268 261 261 271 292 299 260 252 245 243 235 224 205 200
246 248 247 250 250 256 263 268 270 271 270 272 280 280 278 273 268 274 279 271 265 260 254 260 261 251 243 242 239 236 233 222 212
250 255 253 254 257 263 269 275 277 274 273 274 276 280 279 277 276 276 276 275 271 270 264 255 257 253 248 245 243 242 239 239 236
253 256 257 259 261 265 271 278 280 281 281 280 279 279 281 282 279 281 279 278 275 272 269 258 252 250 248 248 247 245 243 243 237
258 259 263 266 266 269 271 273 277 280 281 283 283 282 283 282 283 282 281 280 281 277 268 264 257 250 249 249 247 245 233 232 231
260 261 265 267 270 270 272 273 273 278 279 281 285 286 284 285 286 285 284 283 279 277 277 269 261 257 250 249 250 249 240 228 225
264 265 265 266 268 269 270 272 274 274 276 280 281 284 286 285 288 290 285 280 275 270 271 270 263 259 255 250 247 249 246 234 222
263 266 268 267 267 271 272 271 271 275 276 278 283 283 283 281 283 274 276 280 283 282 279 276 270 264 258 255 253 245 246 246 231
261 264 268 269 270 270 267 263 264 269 274 248 275 280 282 270 266 270 279 282 298 299 297 287 278 271 265 259 256 254 246 247 249
255 258 263 267 268 269 270 266 260 254 268 266 236 247 249 342 284 287 275 288 302 298 306 307 300 287 276 268 260 255 252 246 249
264 268 269 266 265 265 265 265 259 252 250 261 255 247 249 248 293 273 268 286 306 316 319 317 310 306 292 281 275 269 261 255 249
268 273 280 282 276 268 267 265 260 251 248 244 244 246 247 245 229 255 256 302 284 298 301 313 313 306 298 293 287 281 273 263 252